Home > Weather > Tours > Past weeks

Flag for France Past Weather in Tours, Centre-Val de Loire, France — Yesterday and Last 2 Weeks

Now
81 °F

Passing clouds.


Feels Like: 81 °F
Forecast: 63 / 93 °F
Wind: 6 mph from Southwest

Location: Tours Airport

Current Time: Aug 25, 2016 at 11:59:22 AM

Latest Report: Aug 25, 2016 at 11:00 AM


Visibility: N/A

Pressure: 30.01 "Hg

Humidity: 51%

Dew Point: 61 °F

Location of ToursLocation

Past Weather in Tours — Graph

°F

Tours Temperature Yesterday

Maximum temperature yesterday: 99 °F (at 5:00 PM)
Minimum temperature yesterday: 63 °F (at 7:00 AM)
Average temperature yesterday: 81 °F

High & Low Weather Summary for the Past Weeks

 TemperatureHumidityPressure
High99 °F (Aug 24, 5:00 PM)94% (Aug 18, 8:00 AM)30.36 "Hg (Aug 18, 8:00 AM)
Low48 °F (Aug 11, 5:30 AM)16% (Aug 12, 5:00 PM)29.80 "Hg (Aug 17, 6:00 PM)
Average71 °F58%30.10 "Hg
* Reported Aug 10 10:00 AM — Aug 25 10:30 AM, Tours, Weather by CustomWeather, © 2016

Note: Actual official high and low records may vary slightly from our data, if they occured in-between our weather recording intervals... More about our weather records

Advertising

Tours Weather History for the Previous 24 Hours

Scroll right to see more
 ConditionsComfort  
Time TempWeatherWind HumidityBarometerVisibility
10:30 AM
Thu, Aug 25
81 °FPassing clouds.5 mph54%30.01 "HgN/A
10:00 AM77 °FSunny.2 mph57%30.01 "Hg10 mi
9:30 AM75 °FSunny.No wind61%29.98 "Hg10 mi
9:00 AM73 °FSunny.No wind65%29.98 "Hg10 mi
8:30 AM72 °FSunny.No wind69%29.98 "Hg10 mi
8:00 AM66 °FClear.2 mph78%29.98 "Hg10 mi
7:30 AM66 °FClear.2 mph78%29.98 "Hg10 mi
7:00 AM64 °FClear.2 mph83%29.98 "Hg10 mi
6:30 AM66 °FClear.3 mph78%29.98 "Hg10 mi
6:00 AM66 °FClear.1 mph78%29.98 "Hg10 mi
5:30 AM66 °FPassing clouds.6 mph78%29.98 "HgN/A
5:00 AM68 °FClear.3 mph73%29.95 "Hg10 mi
4:30 AM70 °FClear.1 mph69%29.98 "Hg10 mi
4:00 AM70 °FClear.2 mph73%29.98 "Hg10 mi
3:30 AM70 °FClear.2 mph69%29.98 "Hg10 mi
3:00 AM72 °FClear.2 mph69%29.98 "Hg10 mi
2:30 AM72 °FClear.1 mph69%29.98 "Hg10 mi
2:00 AM73 °FClear.2 mph69%29.98 "Hg10 mi
1:30 AM73 °FPassing clouds.3 mph65%29.98 "HgN/A
1:00 AM75 °FPassing clouds.5 mph61%30.01 "HgN/A
12:30 AM75 °FPassing clouds.5 mph65%30.01 "HgN/A
12:00 AM77 °FClear.6 mph57%30.01 "Hg10 mi
11:30 PM
Wed, Aug 24
77 °FClear.1 mph57%29.98 "Hg10 mi
11:00 PM79 °FClear.2 mph54%30.01 "Hg10 mi
10:30 PM79 °FClear.2 mph51%30.01 "Hg10 mi
10:00 PM84 °FClear.1 mph40%30.01 "Hg10 mi
9:30 PM86 °FSunny.No wind38%30.01 "Hg10 mi
9:00 PM90 °FSunny.No wind33%30.01 "Hg10 mi
8:30 PM93 °FSunny.2 mph30%29.98 "Hg10 mi
8:00 PM95 °FPassing clouds.3 mph28%29.98 "HgN/A
7:30 PM97 °FSunny.No wind25%29.98 "Hg10 mi
7:00 PM97 °FSunny.2 mph25%30.01 "Hg10 mi
6:30 PM97 °FPassing clouds.5 mph27%30.01 "HgN/A
6:00 PM99 °FSunny.3 mph24%30.01 "Hg10 mi
5:30 PM97 °FSunny.3 mph25%30.01 "Hg10 mi
5:00 PM99 °FSunny.3 mph24%30.01 "Hg10 mi
4:30 PM97 °FPassing clouds.6 mph25%30.04 "HgN/A
4:00 PM97 °FPassing clouds.5 mph25%30.04 "HgN/A
3:30 PM97 °FPassing clouds.6 mph23%30.04 "HgN/A
3:00 PM95 °FPassing clouds.6 mph28%30.04 "HgN/A
2:30 PM95 °FSunny.3 mph28%30.04 "Hg10 mi
2:00 PM93 °FSunny.5 mph30%30.04 "Hg10 mi
1:30 PM93 °FPassing clouds.3 mph30%30.07 "HgN/A
1:00 PM91 °FSunny.2 mph32%30.07 "Hg10 mi
12:30 PM90 °FSunny.3 mph36%30.07 "Hg10 mi
12:00 PM88 °FPassing clouds.3 mph38%30.07 "HgN/A
11:30 AM86 °FSunny.3 mph40%30.07 "Hg10 mi
11:00 AM82 °FPassing clouds.3 mph45%30.09 "HgN/A
Weather by CustomWeather, © 2016

See weather overviewHow to use our weather pages